Regional Weather Roundup
Issued by NWS

Home | Current Version | Previous Version | Text Only | Print | Product List | Glossary Off
Versions: 1 2 3 4 5 6 7 8 9 10 11 12 13 14 15 16 17 18 19 20 21 22 23 24 25 26 27 28 29 30 31 32 33 34 35 36 37 38 39 40 41 42 43 44 45 46 47 48 49 50

000
ASUS45 KSLC 250310
RWRUT

UTAH REGIONAL WEATHER ROUNDUP
NATIONAL WEATHER SERVICE SALT LAKE CITY UT
900 PM MDT THU JUL 24 2014

UTZ001>011-023>025-250400-

NORTHERN UTAH

CITY           SKY/WX    TMP DP  RH WIND       PRES   REMARKS
HILL AFB       NOT AVBL
LOGAN          CLEAR     74  43  32 N14       30.01R
OGDEN          CLEAR     83  43  24 NW6       29.96S
PROVO AIRPORT  NOT AVBL
SALT LAKE CITY MOCLDY    87  33  14 NW8       29.94S
VERNAL         CLEAR     79  54  41 SW3       30.03S
WENDOVER       CLEAR     86  34  15 N18       29.96S
HEBER CITY     CLEAR     72  41  33 CALM      30.05R
WEST JORDAN    CLEAR     84  45  24 W7        29.99S

$$

UTZ012>022-026-027-250400-

SOUTHERN UTAH

CITY           SKY/WX    TMP DP  RH WIND       PRES   REMARKS
BRYCE CANYON   PTCLDY    70  41  34 S7        30.29R
CEDAR CITY     CLEAR     85  38  18 SW10      30.08R
MILFORD        CLEAR     89  36  15 SW12      29.99R
MOAB/CYNLANDS  CLEAR     90  43  19 S9        29.97R
PRICE          CLEAR     84  42  22 CALM      30.09S
ST GEORGE      CLEAR     97  48  19 SE25G31   29.86R HX  93
KANAB            N/A     84  48  28 S13G28    30.12R

$$

REGIONAL REPORTS     COLORADO/ARIZONA

CITY           SKY/WX    TMP DP  RH WIND       PRES   REMARKS
CRAIG, CO      PTCLDY    66  47  50 S8        30.15R
GRAND JUNCTION CLEAR     80  51  36 S20G32    30.06R
RIFLE          PTCLDY    77  50  38 E17       30.13R
MONTROSE       PTCLDY    73  53  49 SE17      30.20S
CORTEZ         PTCLDY    78  51  38 S10       30.20R
PAGE, AZ       CLOUDY    91  48  22 S14G25    30.01R
GRAND CANYON   CLOUDY    66  56  70 E5        30.28S HAZE
KINGMAN        MOCLDY    90  53  28 SE25      29.95R
FLAGSTAFF      MOCLDY    63  56  78 CALM      30.32R

$$

REGIONAL REPORTS    NEVADA/IDAHO/WYOMING

CITY           SKY/WX    TMP DP  RH WIND       PRES   REMARKS
LAS VEGAS, NV  PTCLDY   105  29   7 SW15      29.73R HX  98
ELY            CLEAR     79  19  10 S9        30.08R
ELKO           CLEAR     81  23  11 W6        30.03S
POCATELLO, ID  CLEAR     68  39  34 SW16      30.08S
BURLEY         CLEAR     65  33  30 SW9       30.07S
EVANSTON, WY   PTCLDY    71  31  22 NW9       30.19S
ROCK SPRINGS   CLEAR     77  27  15 NW13      30.14R

$$



USA.gov is the U.S. government's official web portal to all federal, state and local government web resources and services.